Time,TemperatureF,DewpointF,PressureIn,WindDirection,WindDirectionDegrees,WindSpeedMPH,WindSpeedGustMPH,Humidity,HourlyPrecipIn,Conditions,Clouds,dailyrainin,SoftwareType,DateUTC
2013-02-10 00:11:00,33.6,26.1,30.11,NNE,22,1.3,-999.0,74,0.00,,,0.00,open2300 v1.10,2013-02-10 05:11:00,
2013-02-10 00:21:00,33.4,26.0,30.12,NNE,22,4.0,-999.0,74,0.00,,,0.00,open2300 v1.10,2013-02-10 05:21:00,
2013-02-10 00:31:00,33.4,26.0,30.13,NNE,22,0.4,-999.0,74,0.00,,,0.00,open2300 v1.10,2013-02-10 05:31:00,
2013-02-10 00:41:00,33.4,26.0,30.13,NNE,22,0.0,-999.0,74,0.00,,,0.00,open2300 v1.10,2013-02-10 05:41:00,
2013-02-10 00:51:00,33.3,25.8,30.12,NNE,22,0.0,-999.0,74,0.00,,,0.00,open2300 v1.10,2013-02-10 05:51:00,
2013-02-10 01:11:00,32.9,25.8,30.12,NNE,22,1.6,-999.0,75,0.00,,,0.00,open2300 v1.10,2013-02-10 06:11:00,
2013-02-10 01:21:00,32.9,25.8,30.10,NNE,22,0.0,-999.0,75,0.00,,,0.00,open2300 v1.10,2013-02-10 06:21:00,
2013-02-10 01:31:00,33.1,25.6,30.10,NNE,22,5.4,-999.0,74,0.00,,,0.00,open2300 v1.10,2013-02-10 06:31:00,
2013-02-10 01:41:00,33.4,26.0,30.09,NNE,22,0.0,-999.0,74,0.00,,,0.00,open2300 v1.10,2013-02-10 06:41:00,
2013-02-10 01:51:00,33.4,26.0,30.10,NNE,22,1.8,-999.0,74,0.00,,,0.00,open2300 v1.10,2013-02-10 06:51:00,
2013-02-10 02:01:00,33.4,26.0,30.10,NNE,22,0.0,-999.0,74,0.00,,,0.00,open2300 v1.10,2013-02-10 07:01:00,
2013-02-10 02:11:00,33.4,26.0,30.11,NNE,22,0.0,-999.0,74,0.00,,,0.00,open2300 v1.10,2013-02-10 07:11:00,
2013-02-10 02:21:00,33.4,26.0,30.11,NNE,22,0.0,-999.0,74,0.00,,,0.00,open2300 v1.10,2013-02-10 07:21:00,
2013-02-10 02:31:00,33.4,26.0,30.11,NNE,22,0.0,-999.0,74,0.00,,,0.00,open2300 v1.10,2013-02-10 07:31:00,
2013-02-10 02:41:00,33.6,26.1,30.12,NNE,22,0.0,-999.0,74,0.00,,,0.00,open2300 v1.10,2013-02-10 07:41:00,
2013-02-10 02:51:00,33.6,26.1,30.11,NNE,22,0.0,-999.0,74,0.00,,,0.00,open2300 v1.10,2013-02-10 07:51:00,
2013-02-10 03:01:00,33.6,26.1,30.12,NNE,22,0.2,-999.0,74,0.00,,,0.00,open2300 v1.10,2013-02-10 08:01:00,
2013-02-10 03:11:00,33.6,26.1,30.12,NNE,22,3.1,-999.0,74,0.00,,,0.00,open2300 v1.10,2013-02-10 08:11:00,
2013-02-10 03:21:00,33.6,26.1,30.12,NNE,22,0.7,-999.0,74,0.00,,,0.00,open2300 v1.10,2013-02-10 08:21:00,
2013-02-10 03:31:00,34.0,26.5,30.12,NNE,22,4.9,-999.0,74,0.00,,,0.00,open2300 v1.10,2013-02-10 08:31:00,
2013-02-10 03:41:00,34.2,26.6,30.11,NNE,22,0.0,-999.0,74,0.00,,,0.00,open2300 v1.10,2013-02-10 08:41:00,
2013-02-10 03:51:00,34.0,26.8,30.10,NNE,22,0.0,-999.0,75,0.00,,,0.00,open2300 v1.10,2013-02-10 08:51:00,
2013-02-10 04:01:00,33.8,26.9,30.09,NNE,22,0.0,-999.0,76,0.00,,,0.00,open2300 v1.10,2013-02-10 09:01:00,
2013-02-10 04:11:00,33.6,27.1,30.07,NNE,22,0.0,-999.0,77,0.00,,,0.00,open2300 v1.10,2013-02-10 09:11:00,
2013-02-10 04:21:00,33.4,27.2,30.07,NNE,22,0.0,-999.0,78,0.02,,,0.02,open2300 v1.10,2013-02-10 09:21:00,
2013-02-10 04:31:00,33.3,27.4,30.07,NNE,22,3.8,-999.0,79,0.02,,,0.02,open2300 v1.10,2013-02-10 09:31:00,
2013-02-10 04:41:00,33.3,27.4,30.07,NNE,22,0.0,-999.0,79,0.02,,,0.02,open2300 v1.10,2013-02-10 09:41:00,
2013-02-10 04:51:00,33.3,27.7,30.06,NNE,22,0.0,-999.0,80,0.02,,,0.02,open2300 v1.10,2013-02-10 09:51:00,
2013-02-10 05:01:00,33.1,27.9,30.05,NNE,22,0.0,-999.0,81,0.02,,,0.02,open2300 v1.10,2013-02-10 10:01:00,
2013-02-10 05:11:00,33.1,27.9,30.04,NNE,22,0.0,-999.0,81,0.00,,,0.02,open2300 v1.10,2013-02-10 10:11:00,
2013-02-10 05:21:00,33.1,28.1,30.04,NNE,22,2.0,-999.0,82,0.02,,,0.04,open2300 v1.10,2013-02-10 10:21:00,
2013-02-10 05:31:00,32.9,28.3,30.05,NNE,22,0.0,-999.0,83,0.02,,,0.04,open2300 v1.10,2013-02-10 10:31:00,
2013-02-10 05:41:00,32.9,28.3,30.05,NNE,22,0.0,-999.0,83,0.04,,,0.06,open2300 v1.10,2013-02-10 10:41:00,
2013-02-10 05:51:00,32.9,28.6,30.05,NNE,22,0.0,-999.0,84,0.04,,,0.06,open2300 v1.10,2013-02-10 10:51:00,
2013-02-10 06:01:00,32.9,28.6,30.05,NNE,22,0.0,-999.0,84,0.04,,,0.06,open2300 v1.10,2013-02-10 11:01:00,
2013-02-10 06:11:00,32.7,28.4,30.03,NNE,22,0.0,-999.0,84,0.02,,,0.06,open2300 v1.10,2013-02-10 11:11:00,
2013-02-10 06:21:00,32.7,28.4,30.03,NNE,22,0.0,-999.0,84,0.04,,,0.08,open2300 v1.10,2013-02-10 11:21:00,
2013-02-10 06:31:00,32.7,28.4,30.04,NNE,22,0.0,-999.0,84,0.06,,,0.10,open2300 v1.10,2013-02-10 11:31:00,
2013-02-10 06:41:00,32.9,28.9,30.03,NNE,22,0.0,-999.0,85,0.04,,,0.10,open2300 v1.10,2013-02-10 11:41:00,
2013-02-10 06:51:00,32.9,28.9,30.01,NNE,22,0.0,-999.0,85,0.04,,,0.10,open2300 v1.10,2013-02-10 11:51:00,
2013-02-10 07:01:00,32.9,28.9,30.01,NNE,22,0.0,-999.0,85,0.04,,,0.10,open2300 v1.10,2013-02-10 12:01:00,
2013-02-10 07:11:00,32.9,29.1,30.00,NNE,22,0.0,-999.0,86,0.02,,,0.10,open2300 v1.10,2013-02-10 12:11:00,
2013-02-10 07:21:00,33.1,29.3,29.99,NNE,22,0.0,-999.0,86,0.02,,,0.10,open2300 v1.10,2013-02-10 12:21:00,
2013-02-10 07:31:00,33.1,29.3,30.00,NNE,22,3.4,-999.0,86,0.00,,,0.10,open2300 v1.10,2013-02-10 12:31:00,
2013-02-10 07:41:00,33.3,29.5,29.98,NNE,22,0.0,-999.0,86,0.00,,,0.10,open2300 v1.10,2013-02-10 12:41:00,
2013-02-10 07:51:00,33.3,29.8,29.97,NNE,22,0.0,-999.0,87,0.00,,,0.10,open2300 v1.10,2013-02-10 12:51:00,
2013-02-10 08:01:00,33.3,29.8,29.98,NNE,22,1.8,-999.0,87,0.00,,,0.10,open2300 v1.10,2013-02-10 13:01:00,
2013-02-10 08:11:00,33.4,29.9,29.99,NNE,22,6.5,-999.0,87,0.00,,,0.10,open2300 v1.10,2013-02-10 13:11:00,
2013-02-10 08:21:00,33.6,30.1,29.99,NNE,22,0.7,-999.0,87,0.00,,,0.10,open2300 v1.10,2013-02-10 13:21:00,
2013-02-10 08:31:00,34.0,30.4,30.00,NNE,22,4.7,-999.0,87,0.00,,,0.10,open2300 v1.10,2013-02-10 13:31:00,
2013-02-10 08:41:00,34.2,30.6,29.99,NNE,22,7.6,-999.0,87,0.00,,,0.10,open2300 v1.10,2013-02-10 13:41:00,
2013-02-10 08:51:00,34.3,30.8,29.99,NNE,22,5.4,-999.0,87,0.00,,,0.10,open2300 v1.10,2013-02-10 13:51:00,
2013-02-10 09:01:00,34.3,30.8,29.99,NNE,22,4.9,-999.0,87,0.00,,,0.10,open2300 v1.10,2013-02-10 14:01:00,
2013-02-10 09:11:00,34.3,30.8,29.99,NNE,22,5.4,-999.0,87,0.00,,,0.10,open2300 v1.10,2013-02-10 14:11:00,
2013-02-10 09:21:00,34.3,30.5,29.98,NNE,22,2.9,-999.0,86,0.00,,,0.10,open2300 v1.10,2013-02-10 14:21:00,
2013-02-10 09:31:00,34.5,30.7,29.97,NNE,22,3.4,-999.0,86,0.00,,,0.10,open2300 v1.10,2013-02-10 14:31:00,
2013-02-10 09:41:00,34.9,31.0,29.97,NNE,22,0.0,-999.0,86,0.00,,,0.10,open2300 v1.10,2013-02-10 14:41:00,
2013-02-10 09:51:00,35.2,31.4,29.96,NNE,22,3.6,-999.0,86,0.00,,,0.10,open2300 v1.10,2013-02-10 14:51:00,
2013-02-10 10:01:00,35.4,31.6,29.95,NNE,22,0.0,-999.0,86,0.00,,,0.10,open2300 v1.10,2013-02-10 15:01:00,
2013-02-10 10:11:00,35.6,31.8,29.95,NNE,22,5.6,-999.0,86,0.00,,,0.10,open2300 v1.10,2013-02-10 15:11:00,
2013-02-10 10:21:00,35.8,31.9,29.94,NNE,22,1.8,-999.0,86,0.00,,,0.10,open2300 v1.10,2013-02-10 15:21:00,
2013-02-10 10:31:00,36.0,32.1,29.93,NNE,22,3.4,-999.0,86,0.00,,,0.10,open2300 v1.10,2013-02-10 15:31:00,
2013-02-10 10:41:00,36.1,32.3,29.92,NNE,22,1.6,-999.0,86,0.00,,,0.10,open2300 v1.10,2013-02-10 15:41:00,
2013-02-10 10:51:00,36.3,32.5,29.92,NNE,22,5.6,-999.0,86,0.00,,,0.10,open2300 v1.10,2013-02-10 15:51:00,
2013-02-10 11:01:00,36.9,32.7,29.91,NNE,22,7.2,-999.0,85,0.00,,,0.10,open2300 v1.10,2013-02-10 16:01:00,
2013-02-10 11:11:00,37.2,33.1,29.90,NNE,22,0.0,-999.0,85,0.00,,,0.10,open2300 v1.10,2013-02-10 16:11:00,
2013-02-10 11:21:00,37.8,33.6,29.89,NNE,22,5.4,-999.0,85,0.00,,,0.10,open2300 v1.10,2013-02-10 16:21:00,
2013-02-10 11:31:00,38.3,34.2,29.88,NNE,22,7.8,-999.0,85,0.00,,,0.10,open2300 v1.10,2013-02-10 16:31:00,
2013-02-10 11:41:00,38.8,34.7,29.87,NNE,22,7.4,-999.0,85,0.00,,,0.10,open2300 v1.10,2013-02-10 16:41:00,
2013-02-10 11:51:00,39.6,35.1,29.87,NNE,22,2.5,-999.0,84,0.00,,,0.10,open2300 v1.10,2013-02-10 16:51:00,
2013-02-10 12:01:00,39.9,35.4,29.86,NNE,22,1.3,-999.0,84,0.00,,,0.10,open2300 v1.10,2013-02-10 17:01:00,
2013-02-10 12:11:00,40.3,35.5,29.86,NNE,22,6.5,-999.0,83,0.00,,,0.10,open2300 v1.10,2013-02-10 17:11:00,
2013-02-10 12:21:00,40.8,36.0,29.86,NNE,22,8.3,-999.0,83,0.00,,,0.10,open2300 v1.10,2013-02-10 17:21:00,
2013-02-10 12:31:00,41.0,36.2,29.86,NNE,22,1.3,-999.0,83,0.00,,,0.10,open2300 v1.10,2013-02-10 17:31:00,
2013-02-10 12:41:00,41.2,36.3,29.86,NNE,22,2.2,-999.0,83,0.00,,,0.10,open2300 v1.10,2013-02-10 17:41:00,
2013-02-10 12:51:00,41.4,36.8,29.84,NNE,22,5.6,-999.0,84,0.00,,,0.10,open2300 v1.10,2013-02-10 17:51:00,
2013-02-10 13:01:00,41.7,37.5,29.83,East,90,2.7,-999.0,85,0.00,,,0.10,open2300 v1.10,2013-02-10 18:01:00,
2013-02-10 13:11:00,41.9,37.7,29.82,NNE,22,1.3,-999.0,85,0.00,,,0.10,open2300 v1.10,2013-02-10 18:11:00,
2013-02-10 13:21:00,42.4,38.5,29.81,NNE,22,5.4,-999.0,86,0.00,,,0.10,open2300 v1.10,2013-02-10 18:21:00,
2013-02-10 13:31:00,42.6,38.7,29.80,NNE,22,6.9,-999.0,86,0.00,,,0.10,open2300 v1.10,2013-02-10 18:31:00,
2013-02-10 13:41:00,43.0,39.1,29.79,NNE,22,3.6,-999.0,86,0.00,,,0.10,open2300 v1.10,2013-02-10 18:41:00,
2013-02-10 13:51:00,43.3,39.4,29.79,NNE,22,2.5,-999.0,86,0.02,,,0.12,open2300 v1.10,2013-02-10 18:51:00,
2013-02-10 14:01:00,43.5,39.9,29.79,NNE,22,0.0,-999.0,87,0.02,,,0.12,open2300 v1.10,2013-02-10 19:01:00,
2013-02-10 14:11:00,43.5,39.9,29.79,NNE,22,3.1,-999.0,87,0.02,,,0.12,open2300 v1.10,2013-02-10 19:11:00,
2013-02-10 14:21:00,43.7,40.1,29.78,NNE,22,6.0,-999.0,87,0.04,,,0.14,open2300 v1.10,2013-02-10 19:21:00,
2013-02-10 14:31:00,44.1,40.4,29.77,NNE,22,5.1,-999.0,87,0.06,,,0.16,open2300 v1.10,2013-02-10 19:31:00,
2013-02-10 14:41:00,44.2,40.6,29.74,NNE,22,10.1,-999.0,87,0.08,,,0.18,open2300 v1.10,2013-02-10 19:41:00,
2013-02-10 14:51:00,44.4,40.8,29.73,NNE,22,0.0,-999.0,87,0.08,,,0.20,open2300 v1.10,2013-02-10 19:51:00,
2013-02-10 15:01:00,44.8,41.5,29.73,NNE,22,15.2,-999.0,88,0.08,,,0.20,open2300 v1.10,2013-02-10 20:01:00,
2013-02-10 15:11:00,45.0,41.7,29.73,North,0,9.8,-999.0,88,0.06,,,0.20,open2300 v1.10,2013-02-10 20:11:00,
2013-02-10 15:21:00,45.1,41.8,29.72,NNE,22,11.4,-999.0,88,0.06,,,0.20,open2300 v1.10,2013-02-10 20:21:00,
2013-02-10 15:31:00,45.3,42.0,29.71,NNE,22,6.9,-999.0,88,0.04,,,0.20,open2300 v1.10,2013-02-10 20:31:00,
2013-02-10 15:41:00,45.3,42.0,29.70,North,0,7.2,-999.0,88,0.02,,,0.20,open2300 v1.10,2013-02-10 20:41:00,
2013-02-10 15:51:00,45.5,41.9,29.69,NNE,22,6.5,-999.0,87,0.00,,,0.20,open2300 v1.10,2013-02-10 20:51:00,
2013-02-10 16:01:00,45.5,42.2,29.69,North,0,8.7,-999.0,88,0.00,,,0.20,open2300 v1.10,2013-02-10 21:01:00,
2013-02-10 16:11:00,45.5,42.4,29.68,North,0,10.7,-999.0,88,0.00,,,0.20,open2300 v1.10,2013-02-10 21:11:00,
2013-02-10 16:21:00,45.5,42.2,29.67,North,0,8.7,-999.0,88,0.00,,,0.20,open2300 v1.10,2013-02-10 21:21:00,
2013-02-10 16:31:00,45.7,42.4,29.67,NNE,22,6.3,-999.0,88,0.00,,,0.20,open2300 v1.10,2013-02-10 21:31:00,
2013-02-10 16:41:00,45.7,42.1,29.66,North,0,5.1,-999.0,87,0.00,,,0.20,open2300 v1.10,2013-02-10 21:41:00,
2013-02-10 16:51:00,46.0,42.4,29.65,North,0,7.4,-999.0,87,0.00,,,0.20,open2300 v1.10,2013-02-10 21:51:00,
2013-02-10 17:01:00,46.2,42.6,29.65,NNE,22,6.5,-999.0,87,0.00,,,0.20,open2300 v1.10,2013-02-10 22:01:00,
2013-02-10 17:11:00,46.6,42.9,29.65,NNE,22,2.9,-999.0,87,0.00,,,0.20,open2300 v1.10,2013-02-10 22:11:00,
2013-02-10 17:21:00,46.6,42.6,29.65,NNE,22,5.8,-999.0,86,0.00,,,0.20,open2300 v1.10,2013-02-10 22:21:00,
2013-02-10 17:31:00,46.9,43.0,29.64,NNE,22,6.5,-999.0,86,0.00,,,0.20,open2300 v1.10,2013-02-10 22:31:00,
2013-02-10 17:41:00,47.3,43.3,29.65,North,0,14.8,-999.0,86,0.00,,,0.20,open2300 v1.10,2013-02-10 22:41:00,
2013-02-10 17:51:00,47.7,43.7,29.64,North,0,12.5,-999.0,86,0.00,,,0.20,open2300 v1.10,2013-02-10 22:51:00,
2013-02-10 18:01:00,48.0,43.7,29.64,NNE,22,5.8,-999.0,85,0.00,,,0.20,open2300 v1.10,2013-02-10 23:01:00,
2013-02-10 18:11:00,48.4,44.0,29.63,NNE,22,10.5,-999.0,85,0.00,,,0.20,open2300 v1.10,2013-02-10 23:11:00,
2013-02-10 18:21:00,48.6,44.5,29.64,NNE,22,5.8,-999.0,86,0.00,,,0.20,open2300 v1.10,2013-02-10 23:21:00,
2013-02-10 18:31:00,48.6,44.8,29.65,North,0,6.5,-999.0,87,0.00,,,0.20,open2300 v1.10,2013-02-10 23:31:00,
2013-02-10 18:41:00,48.6,44.8,29.65,North,0,13.2,-999.0,87,0.00,,,0.20,open2300 v1.10,2013-02-10 23:41:00,
2013-02-10 18:51:00,48.7,45.3,29.65,NNE,22,6.5,-999.0,88,0.00,,,0.20,open2300 v1.10,2013-02-10 23:51:00,
2013-02-10 19:01:00,48.6,45.5,29.66,North,0,11.0,-999.0,89,0.00,,,0.20,open2300 v1.10,2013-02-11 00:01:00,
2013-02-10 19:11:00,48.6,45.5,29.66,North,0,11.0,-999.0,89,0.00,,,0.20,open2300 v1.10,2013-02-11 00:11:00,
2013-02-10 19:21:00,48.6,45.5,29.65,NNE,22,8.9,-999.0,89,0.00,,,0.20,open2300 v1.10,2013-02-11 00:21:00,
2013-02-10 19:31:00,48.6,45.8,29.65,North,0,9.6,-999.0,90,0.00,,,0.20,open2300 v1.10,2013-02-11 00:31:00,
2013-02-10 19:41:00,48.7,46.0,29.65,NNE,22,3.4,-999.0,90,0.00,,,0.20,open2300 v1.10,2013-02-11 00:41:00,
2013-02-10 19:51:00,48.9,46.2,29.66,NNE,22,7.2,-999.0,90,0.00,,,0.20,open2300 v1.10,2013-02-11 00:51:00,
2013-02-10 20:01:00,49.1,46.3,29.65,NNE,22,13.2,-999.0,90,0.00,,,0.20,open2300 v1.10,2013-02-11 01:01:00,
2013-02-10 20:11:00,49.3,46.5,29.65,North,0,7.4,-999.0,90,0.00,,,0.20,open2300 v1.10,2013-02-11 01:11:00,
2013-02-10 20:21:00,49.6,46.8,29.65,East,90,2.7,-999.0,90,0.00,,,0.20,open2300 v1.10,2013-02-11 01:21:00,
2013-02-10 20:31:00,49.8,46.6,29.65,North,0,13.9,-999.0,89,0.00,,,0.20,open2300 v1.10,2013-02-11 01:31:00,
2013-02-10 20:41:00,50.2,47.0,29.65,NNE,22,8.9,-999.0,89,0.00,,,0.20,open2300 v1.10,2013-02-11 01:41:00,
2013-02-10 20:51:00,50.4,46.9,29.65,NNE,22,6.3,-999.0,88,0.00,,,0.20,open2300 v1.10,2013-02-11 01:51:00,
2013-02-10 21:01:00,50.5,47.0,29.65,NNE,22,19.7,-999.0,88,0.00,,,0.20,open2300 v1.10,2013-02-11 02:01:00,
2013-02-10 21:11:00,50.5,47.0,29.64,NNE,22,15.7,-999.0,88,0.00,,,0.20,open2300 v1.10,2013-02-11 02:11:00,
2013-02-10 21:21:00,50.5,47.0,29.64,North,0,6.7,-999.0,88,0.00,,,0.20,open2300 v1.10,2013-02-11 02:21:00,
2013-02-10 21:31:00,50.2,46.7,29.64,North,0,9.8,-999.0,88,0.00,,,0.20,open2300 v1.10,2013-02-11 02:31:00,
2013-02-10 21:41:00,50.4,46.9,29.64,North,0,10.1,-999.0,88,0.00,,,0.20,open2300 v1.10,2013-02-11 02:41:00,
2013-02-10 21:51:00,50.5,47.0,29.63,North,0,12.8,-999.0,88,0.00,,,0.20,open2300 v1.10,2013-02-11 02:51:00,
2013-02-10 22:01:00,50.7,47.2,29.63,NNE,22,5.1,-999.0,88,0.00,,,0.20,open2300 v1.10,2013-02-11 03:01:00,
2013-02-10 22:11:00,50.7,47.2,29.63,NNE,22,9.6,-999.0,88,0.00,,,0.20,open2300 v1.10,2013-02-11 03:11:00,
2013-02-10 22:21:00,50.9,47.1,29.63,NNE,22,0.0,-999.0,87,0.00,,,0.20,open2300 v1.10,2013-02-11 03:21:00,
2013-02-10 22:31:00,51.3,47.5,29.63,North,0,5.8,-999.0,87,0.00,,,0.20,open2300 v1.10,2013-02-11 03:31:00,
2013-02-10 22:41:00,51.4,47.6,29.63,North,0,9.8,-999.0,87,0.00,,,0.20,open2300 v1.10,2013-02-11 03:41:00,
2013-02-10 22:51:00,51.6,47.5,29.63,North,0,4.9,-999.0,86,0.00,,,0.20,open2300 v1.10,2013-02-11 03:51:00,
2013-02-10 23:01:00,51.6,47.5,29.64,NNE,22,15.0,-999.0,86,0.00,,,0.20,open2300 v1.10,2013-02-11 04:01:00,
2013-02-10 23:11:00,51.8,47.7,29.63,NNE,22,15.7,-999.0,86,0.00,,,0.20,open2300 v1.10,2013-02-11 04:11:00,
2013-02-10 23:21:00,51.8,47.7,29.63,North,0,12.5,-999.0,86,0.00,,,0.20,open2300 v1.10,2013-02-11 04:21:00,
2013-02-10 23:31:00,51.6,47.5,29.63,NNE,22,6.5,-999.0,86,0.00,,,0.20,open2300 v1.10,2013-02-11 04:31:00,
2013-02-10 23:41:00,51.6,47.5,29.63,North,0,7.8,-999.0,86,0.00,,,0.20,open2300 v1.10,2013-02-11 04:41:00,
2013-02-10 23:51:00,51.4,47.3,29.63,NNE,22,6.0,-999.0,86,0.00,,,0.20,open2300 v1.10,2013-02-11 04:51:00,